Miscellaneous Local Product
Issued by NWS North Platte, NE

Home | Current Version | Previous Version | Graphics & Text | Print | Product List | Glossary On
Versions: 1 2 3 4 5 6 7 8 9 10 11 12 13 14 15 16 17 18 19 20 21 22 23 24 25 26 27 28 29 30 31 32 33 34 35 36 37 38 39 40 41 42 43 44 45 46 47 48 49 50
000
AXUS43 KLBF 281710
MISLBF


WESTERN AND NORTH CENTRAL NEBRASKA HOURLY WEATHER ROUNDUP
NATIONAL WEATHER SERVICE NORTH PLATTE NE
1100 AM CST SAT FEB 28 2015

***STATIONS NOT REPORTING VARIABLES SUCH AS SKY/WEATHER OR
PRESSURE ARE PROVIDED BY THE NEBRASKA DEPARTMENT OF
ROADS...RAWS...AND APRS NETWORKS...AND ARE NOT UNDER
NATIONAL WEATHER SERVICE QUALITY CONTROL***

...OBSERVATIONS IN AND NEAR THE EASTERN PANHANDLE OF NEBRASKA...

CITY           SKY/WX    TMP DP  RH WIND       PRES   REMARKS
PINE RIDGE     SUNNY     23   8  52 N6        30.11S WCI  16
CHADRON        SUNNY     21  10  62 NE6       30.12S WCI  13
ALLIANCE       SUNNY     19   8  62 CALM      30.07R
SIDNEY         CLOUDY    17  10  74 S8        30.07R WCI   7
WHITECLAY        N/A     21   8  56 E5          N/A  WCI  15
CRESCENT LAKE    N/A     19   9  63 SW9         N/A  WCI   8
LISCO            N/A     25   7  46 SW8         N/A  WCI  16
BIG SPRINGS      N/A     21  14  75 S12         N/A  WCI   9
LEWELLEN         N/A     18   7  62 S12         N/A  WCI   5
$$

...OBSERVATIONS IN NORTH CENTRAL NEBRASKA...

CITY           SKY/WX    TMP DP  RH WIND       PRES   REMARKS
VALENTINE      SUNNY     24   9  52 SW18      30.16S WCI  10
THEDFORD       FLURRIES  20  11  66 SW14G22   30.18S WCI   7
AINSWORTH      SUNNY     22  10  59 SW17G23   30.18S WCI   8
O`NEILL        MOSUNNY   22  10  59 S14       30.26S WCI  10
ORD            CLOUDY    19   8  62 S16       30.29S WCI   4
BROKEN BOW     CLOUDY    20  10  65 S18G24    30.24F WCI   5
BROWNLEE         N/A     18   9  68 S21         N/A  WCI   1
SPRINGVIEW       N/A     22  10  60 SW13G20     N/A  WCI  10
BREWSTER         N/A     26  13  59 S15         N/A  WCI  13
ROSE             N/A     25  15  66 SE13        N/A  WCI  14
NEWPORT          N/A     28  16  61 S17         N/A  WCI  15
SARGENT          N/A     19  12  73 S5G12       N/A  WCI  12
COMSTOCK         N/A     27  14  58 S13         N/A  WCI  16
CHAMBERS         N/A     23   7  51 S13         N/A  WCI  11
EWING            N/A     21  12  67 S14G22      N/A  WCI   8
$$

...OBSERVATIONS IN SOUTHWEST NEBRASKA AND FAR NORTHEAST COLORADO...

CITY           SKY/WX    TMP DP  RH WIND       PRES   REMARKS
WRAY           PTSUNNY   19  11  69 S8        30.11F WCI   9
IMPERIAL         N/A     18   7  62 S10       30.15S WCI   6
OGALLALA       PTSUNNY   20  12  69 S8G16     30.14F WCI  10
NORTH PLATTE   CLOUDY    20   9  62 S13       30.20F WCI   7
MCCOOK         CLOUDY    22  10  60 S13       30.23F WCI  10
LEXINGTON      CLOUDY    22  11  62 S10       30.26F WCI  11
PAXTON           N/A     19  13  76 S9          N/A  WCI   8
BRADY            N/A     20  11  66 CALM        N/A
GOTHENBURG       N/A     19  10  67 S8          N/A  WCI   9
CALLAWAY         N/A     19  11  69 S16         N/A  WCI   4
$$

...NORTH PLATTE AREA...

CITY           SKY/WX    TMP DP  RH WIND       PRES   REMARKS
AIRPORT        CLOUDY    20   9  62 S13       30.20F WCI   7
DOWNTOWN         N/A     19  10  67 S8          N/A  WCI   9
$$

...SOME WEATHER OBSERVATIONS FROM AROUND THE REGION...

CITY           SKY/WX    TMP DP  RH WIND       PRES   REMARKS
DENVER         PTSUNNY   12   7  80 W7        29.97R FOG     WCI   1
LARAMIE        SUNNY     17   5  59 E5        29.82F WCI  10
CHEYENNE       SUNNY     17   8  67 N10       29.93R WCI   5
SCOTTSBLUFF    SUNNY     20   9  62 W6        30.08R WCI  12
RAPID CITY     SUNNY     19   6  57 N22       30.10S WCI   2
PIERRE         SUNNY     25  10  53 SW9       30.15S WCI  15
WINNER         FAIR      26   7  44 SW18      30.18F WCI  13
SIOUX FALLS    MOSUNNY   17   8  67 S22       30.34F WCI   0
OMAHA          PTSUNNY   19   8  62 S13       30.48F WCI   6
GRAND ISLAND   CLOUDY    18   9  68 SW15      30.36S WCI   4
KANSAS CITY    LGT SNOW  19  15  84 SE8       30.50S VSB 1   WCI   9
WICHITA        HVY SNOW  19  15  84 SE9       30.41S VSB 1/4 WCI   8
HAYS           CLOUDY    16   3  57 SE9       30.34R WCI   4
LIBERAL        PTSUNNY   18  10  73 S14       30.21R WCI   4
GOODLAND       LGT SNOW  15  10  80 S12       30.13R WCI   2
$$



USA.gov is the U.S. government's official web portal to all federal, state and local government web resources and services.